Location: Navajo
(48.7922°N, 105.0603°W)
Time: 08:52:16
(UTC+00:00)

ITUPSAT 1 - Pass Details

Date: 09 July 2022
Orbit: 701 x 711 km, 98.6° (Epoch: 13 August)

Event Time Altitude Azimuth Distance (km) Brightness Sun altitude
Rises 05:19:05 0° 0° (N) 3,117 ? -15.0°
Reaches altitude 10° 05:22:20 10° 337° (NNW) 2,194 ? -15.2°
Maximum altitude 05:24:49 14° 305° (NW) 1,913 ? -15.4°
Drops below altitude 10° 05:27:18 10° 274° (W) 2,189 ? -15.5°
Sets 05:30:33 0° 250° (WSW) 3,105 ? -15.8°
